Weather History for Ingonish Beach, NS

Change the Weather History Date:

Thursday, October 25, 2012

  Actual Average Record
Temperature  
Mean Temperature 40 °F -  
Max Temperature 45 °F - - ()
Min Temperature 36 °F - - ()
Degree Days  
Heating Degree Days 24    
Moisture  
Dew Point 35 °F    
Average Humidity 78    
Maximum Humidity 89    
Minimum Humidity 68    
Precipitation  
Precipitation 0.00 in - - ()
Sea Level Pressure  
Sea Level Pressure 30.08 in    
Wind  
Wind Speed 4 mph ()    
Max Wind Speed 8 mph    
Max Gust Speed 20 mph    
T = Trace of Precipitation, MM = Missing Value Source: Averaged Metar Reports

Daily Weather History Graph

Daily Weather History Graph

Search for Another Location

Airport:

Trip Planner

Search our weather history database for the weather conditions in past years. The results will help you decide how hot, cold, wet, or windy it might be!

Date:

Astronomy

Oct. 25, 2012 Rise Set
Actual Time 7:34 AM ADT 5:56 PM ADT
Civil Twilight 7:02 AM ADT 6:27 PM ADT
Nautical Twilight 6:27 AM ADT 7:02 PM ADT
Astronomical Twilight 5:52 AM ADT 7:37 PM ADT
Moon 3:51 PM ADT (10/25) 3:12 AM ADT (10/25)
Length of Visible Light 11h 24m
Length of Day
10h 22m
Waxing Gibbous, 84% of the Moon is Illuminated
Oct 25
Waxing Gibbous
Oct 29
Full
Nov 6
Last Quarter
Nov 13
New
Nov 20
First Quarter

Hourly Weather History & Observations

Time (ADT) Temp. Windchill Dew Point Humidity Pressure Visibility Wind Dir Wind Speed Gust Speed Precip Events Conditions
12:00 AM 36.9 °F 34.3 °F 34.0 °F 89% 29.98 in - WNW 3.5 mph - N/A   Unknown
1:00 AM 37.0 °F 34.5 °F 33.6 °F 87% 29.99 in - NNW 3.5 mph - N/A   Unknown
2:00 AM 37.2 °F 34.7 °F 33.6 °F 87% 30.01 in - WNW 3.5 mph - N/A   Unknown
3:00 AM 38 °F - 34 °F 81% 30.02 in - West 3.5 mph - -  
3:00 AM 37.8 °F 35.3 °F 34.2 °F 87% 30.02 in - West 3.5 mph - N/A   Unknown
5:00 AM 38.3 °F - 34.0 °F 84% 30.04 in - WNW 2.3 mph - N/A   Unknown
6:00 AM 38.3 °F 34.8 °F 34.2 °F 85% 30.06 in - NW 4.6 mph - N/A   Unknown
7:00 AM 37.9 °F 35.5 °F 33.8 °F 85% 30.06 in - NW 3.5 mph - N/A   Unknown
8:00 AM 37.8 °F - 34.7 °F 89% 30.09 in - WNW 2.3 mph - N/A   Unknown
9:00 AM 40 °F - 35 °F 77% 30.11 in - NW 2.3 mph - -  
9:00 AM 40.3 °F - 35.2 °F 82% 30.11 in - NW 2.3 mph - N/A   Unknown
10:00 AM 42.6 °F 38.4 °F 35.4 °F 76% 30.12 in - North 6.9 mph - N/A   Unknown
11:00 AM 44.1 °F 40.1 °F 35.4 °F 72% 30.12 in - NNW 6.9 mph 19.6 mph N/A   Unknown
12:00 PM 44.4 °F 40.5 °F 34.7 °F 69% 30.11 in - North 6.9 mph - N/A   Unknown
1:00 PM 44.2 °F 40.3 °F 35.1 °F 70% 30.09 in - North 6.9 mph - N/A   Unknown
2:00 PM 44.6 °F 40.2 °F 35.2 °F 70% 30.08 in - North 8.1 mph - N/A   Unknown
3:00 PM 42 °F - 35 °F 68% 30.08 in - North 8.1 mph - -  
4:00 PM 42.1 °F 38.4 °F 34.3 °F 74% 30.09 in - North 5.8 mph - N/A   Unknown
5:00 PM 41.4 °F 38.4 °F 34.5 °F 77% 30.09 in - North 4.6 mph - N/A   Unknown
6:00 PM 41.0 °F 38.0 °F 34.0 °F 76% 30.11 in - NNW 4.6 mph - N/A   Unknown
7:00 PM 41.4 °F 39.4 °F 33.8 °F 74% 30.11 in - NNW 3.5 mph - N/A   Unknown
8:00 PM 41.7 °F 37.3 °F 35.1 °F 77% 30.13 in - North 6.9 mph - N/A   Unknown
9:00 PM 42 °F - 35 °F 68% 30.12 in - NNW 4.6 mph - -  
9:00 PM 41.9 °F 39.0 °F 34.9 °F 76% 30.12 in - NNW 4.6 mph - N/A   Unknown
10:00 PM 42.4 °F 38.8 °F 34.9 °F 75% 30.12 in - NNW 5.8 mph - N/A   Unknown
11:00 PM 43.3 °F 39.9 °F 35.8 °F 75% 30.11 in - NNW 5.8 mph - N/A   Unknown